Weather History for KBOW - July, 2013

Change the Weather History Date:

Thursday, July 18, 2013

  Actual Average Record
Temperature  
Mean Temperature 78 °F -  
Max Temperature 86 °F 92 °F 97 °F (1934)
Min Temperature 69 °F 72 °F 66 °F (1963)
Cooling Degree Days 12    
Growing Degree Days 28 (Base 50)    
Moisture  
Dew Point 72 °F    
Average Humidity 91    
Maximum Humidity 100    
Minimum Humidity 55    
Precipitation  
Precipitation 0.41 in - - ()
Sea Level Pressure  
Sea Level Pressure 30.11 in    
Wind  
Wind Speed 4 mph (East)    
Max Wind Speed 10 mph    
Max Gust Speed -    
Visibility 8 miles    
Events Rain    
Averages and records for this station are not official NWS values.
T = Trace of Precipitation, MM = Missing Value Source: NWS Daily Summary

Daily Weather History Graph

Daily Weather History Graph

Search for Another Location

Airport or City:

Trip Planner

Search our weather history database for the weather conditions in past years. The results will help you decide how hot, cold, wet, or windy it might be!

Date:

Astronomy

Jul. 18, 2013 Rise Set
Actual Time 6:42 AM EDT 8:24 PM EDT
Civil Twilight 6:16 AM EDT 8:50 PM EDT
Nautical Twilight 5:45 AM EDT 9:21 PM EDT
Astronomical Twilight 5:12 AM EDT 9:54 PM EDT
Moon 4:21 PM EDT (7/18) 2:26 AM EDT (7/18)
Length of Visible Light 14h 33m
Length of Day
13h 41m
Waxing Gibbous, 77% of the Moon is Illuminated
Jul 18
Waxing Gibbous
Jul 22
Full
Jul 29
Last Quarter
Aug 6
New
Aug 14
First Quarter

Hourly Weather History & Observations

Time (EDT) Temp. Heat Index Dew Point Humidity Pressure Visibility Wind Dir Wind Speed Gust Speed Precip Events Conditions
12:15 AM 71.6 °F - 71.6 °F 100% 30.13 in 10.0 mi ENE 3.5 mph - N/A   Clear
12:35 AM 71.6 °F - 71.6 °F 100% 30.13 in 10.0 mi East 5.8 mph - N/A   Clear
12:55 AM 71.6 °F - 71.6 °F 100% 30.13 in 9.0 mi East 4.6 mph - N/A   Clear
1:15 AM 71.6 °F - 71.6 °F 100% 30.12 in 9.0 mi ESE 3.5 mph - N/A   Clear
1:35 AM 71.6 °F - 71.6 °F 100% 30.12 in 10.0 mi Calm Calm - N/A   Clear
1:55 AM 71.6 °F - 71.6 °F 100% 30.12 in 10.0 mi Calm Calm - N/A   Clear
2:15 AM 71.6 °F - 71.6 °F 100% 30.12 in 10.0 mi Calm Calm - N/A   Clear
2:35 AM 71.6 °F - 71.6 °F 100% 30.12 in 10.0 mi Calm Calm - N/A   Clear
2:55 AM 71.6 °F - 71.6 °F 100% 30.12 in 9.0 mi Calm Calm - N/A   Clear
3:15 AM 71.6 °F - 71.6 °F 100% 30.12 in 9.0 mi Calm Calm - N/A   Clear
3:35 AM 69.8 °F - 69.8 °F 100% 30.12 in 8.0 mi Calm Calm - N/A   Clear
3:55 AM 69.8 °F - - N/A% 30.11 in 8.0 mi Calm Calm - N/A   Clear
4:15 AM 69.8 °F - - N/A% 30.10 in 7.0 mi Calm Calm - N/A   Clear
4:35 AM 69.8 °F - - N/A% 30.10 in 8.0 mi Calm Calm - N/A   Clear
4:55 AM 71.6 °F - - N/A% 30.10 in 8.0 mi Calm Calm - N/A   Clear
5:15 AM 71.6 °F - - N/A% 30.11 in 7.0 mi Calm Calm - N/A   Clear
5:35 AM 71.6 °F - - N/A% 30.11 in 8.0 mi Calm Calm - N/A   Clear
5:55 AM 71.6 °F - - N/A% 30.11 in 8.0 mi NE 5.8 mph - N/A   Clear
6:15 AM 71.6 °F - - N/A% 30.12 in 9.0 mi NE 4.6 mph - N/A   Clear
6:35 AM 71.6 °F - - N/A% 30.12 in 8.0 mi NE 4.6 mph - N/A   Clear
6:55 AM 71.6 °F - - N/A% 30.12 in 5.0 mi NE 5.8 mph - N/A   Haze
7:15 AM 71.6 °F - - N/A% 30.12 in 6.0 mi NE 4.6 mph - N/A   Haze
7:50 AM 73.4 °F - - N/A% 30.12 in 7.0 mi ENE 4.6 mph - N/A   Mostly Cloudy
8:50 AM 75.2 °F - 75.2 °F 100% 30.15 in 7.0 mi ENE 6.9 mph - N/A   Mostly Cloudy
9:50 AM 78.8 °F - 71.6 °F 78% 30.14 in 9.0 mi East 6.9 mph - N/A   Mostly Cloudy
10:50 AM 80.6 °F 84.6 °F 71.6 °F 74% 30.14 in 8.0 mi East 8.1 mph - N/A   Mostly Cloudy
11:50 AM 82.4 °F 87.2 °F 71.6 °F 70% 30.14 in 7.0 mi ESE 8.1 mph - N/A   Mostly Cloudy
12:50 PM 82.4 °F 89.5 °F 75.2 °F 79% 30.14 in 8.0 mi East 6.9 mph - N/A   Mostly Cloudy
1:50 PM 82.4 °F 86.3 °F 69.8 °F 66% 30.12 in 7.0 mi ESE 6.9 mph - N/A   Mostly Cloudy
2:50 PM 86.0 °F 89.4 °F 68.0 °F 55% 30.10 in 7.0 mi SE 4.6 mph - N/A   Mostly Cloudy
3:35 PM 84.2 °F 88.4 °F 69.8 °F 62% 30.08 in 8.0 mi East 8.1 mph - N/A   Mostly Cloudy
3:55 PM 86.0 °F 90.4 °F 69.8 °F 58% 30.07 in 9.0 mi East 6.9 mph - N/A   Scattered Clouds
4:15 PM 84.2 °F 88.4 °F 69.8 °F 62% 30.07 in 8.0 mi East 6.9 mph - N/A   Mostly Cloudy
4:35 PM 82.4 °F 87.2 °F 71.6 °F 70% 30.08 in 9.0 mi SSE 10.4 mph - N/A   Mostly Cloudy
4:55 PM 73.4 °F - 73.4 °F 100% 30.08 in - SW 10.4 mph - 0.41 in Rain Rain
5:15 PM 73.4 °F - 73.4 °F 100% 30.08 in - Calm Calm - N/A   Unknown
6:15 PM 75.2 °F - 75.2 °F 100% 30.09 in 8.0 mi NE 5.8 mph - N/A   Mostly Cloudy
6:35 PM 75.2 °F - 75.2 °F 100% 30.09 in 9.0 mi East 4.6 mph - N/A   Mostly Cloudy
6:55 PM 73.4 °F - 73.4 °F 100% 30.09 in 7.0 mi East 5.8 mph - N/A   Scattered Clouds
7:15 PM 73.4 °F - 73.4 °F 100% 30.09 in 8.0 mi ENE 4.6 mph - N/A   Clear
7:35 PM 73.4 °F - 73.4 °F 100% 30.10 in 10.0 mi ENE 4.6 mph - N/A   Clear
7:55 PM 73.4 °F - 73.4 °F 100% 30.10 in 10.0 mi East 4.6 mph - N/A   Clear
8:15 PM 73.4 °F - 73.4 °F 100% 30.10 in 10.0 mi ESE 4.6 mph - N/A   Clear
8:35 PM 73.4 °F - 73.4 °F 100% 30.11 in 8.0 mi ESE 5.8 mph - N/A   Clear
8:55 PM 73.4 °F - 73.4 °F 100% 30.11 in 10.0 mi ESE 4.6 mph - N/A   Clear
9:15 PM 73.4 °F - 73.4 °F 100% 30.11 in 10.0 mi ESE 4.6 mph - N/A   Clear
9:35 PM 73.4 °F - 73.4 °F 100% 30.11 in 10.0 mi ESE 3.5 mph - N/A   Scattered Clouds
9:55 PM 71.6 °F - 71.6 °F 100% 30.12 in 9.0 mi East 3.5 mph - N/A   Scattered Clouds
10:15 PM 71.6 °F - 71.6 °F 100% 30.11 in 10.0 mi ENE 3.5 mph - N/A   Scattered Clouds
10:35 PM 71.6 °F - 71.6 °F 100% 30.12 in 8.0 mi Calm Calm - N/A   Partly Cloudy
10:55 PM 71.6 °F - - N/A% 30.12 in 9.0 mi Calm Calm - N/A   Clear
11:15 PM 71.6 °F - - N/A% 30.12 in 9.0 mi SSE 4.6 mph - N/A   Clear
11:35 PM 71.6 °F - - N/A% 30.13 in 8.0 mi South 4.6 mph - N/A   Clear
11:55 PM 71.6 °F - - N/A% 30.13 in 9.0 mi South 4.6 mph - N/A   Clear